COSMOS 2590 (64527 NORAD) Tracking and Keplerian Element Data

This shows tracking and keplerian element data for the satellite.

Feedback or suggestion? Click here.




ElementValue
Catalog64527
NameCOSMOS 2590
Epoch Orbit181
Epoch Day353.69492262
Epoch Year2025
RAAN293.3799
Inclination0.326
Eccentricity0.3664422
Argument of Perigee164.0401
Mean Anonmoly351.4873
Mean Motion1.00252678
Decay Rate-3.2E-06
L11 64527U 25131D 25353.69492262 -.00000320 00000+0 00000+0 0 9998
L22 64527 0.3260 293.3799 3664422 164.0401 351.4873 1.00252678 1814



Live tracking and technical data element details for COSMOS 2590 (NORAD 64527). COSMOS 2590 can be tracked NOW for your location showing map with azimuth and elevation plus other details from your city location.







IsCatalogInMostPopularTable: catalog: 64527, numindb: 4
Update: records affected: 1



GetName: 64527 COSMOS 2590

Hit Count: updated at: Sat, 11 Apr 2026 21:57:47 GMT